This demonstration page uses our WeatherBlox Daily Observations layout. Learn more.

Left ArrowRight Arrow

Hourly Observations for December 6, 2015

Temp ( °F °C ) Dew Point ( °F °C ) Humidity (%) Winds ( mph kmh ) Pressure ( in mb ) Visibility ( mi km ) Precip ( " mm )
12:53 am 00:53 Mostly Clear 42 5.6 31 -0.6 65 65 Calm 30.55 1034 10 16 0.00 0.00
1:53 am 01:53 Mostly Clear 39 3.9 32 0 76 76 Calm 30.54 1034 10 16 0.00 0.00
2:53 am 02:53 Partly Cloudy 40 4.4 32 0 73 73 NE 5 7 30.53 1034 10 16 0.00 0.00
3:53 am 03:53 Mostly Clear 42 5.6 31 -0.6 65 65 NE 3 6 30.52 1034 10 16 0.00 0.00
4:53 am 04:53 Clear 40 4.4 31 -0.6 70 70 NE 5 7 30.50 1033 10 16 0.00 0.00
5:53 am 05:53 Clear 40 4.4 30 -1.1 68 68 NE 6 9 30.51 1033 10 16 0.00 0.00
6:53 am 06:53 Clear 38 3.3 31 -0.6 76 76 NNE 3 6 30.52 1034 10 16 0.00 0.00
7:53 am 07:53 Sunny 40 4.4 32 0 73 73 Calm 30.53 1034 10 16 0.00 0.00
8:53 am 08:53 Mostly Cloudy 46 7.8 33 0.6 61 61 NE 6 9 30.53 1034 10 16 0.00 0.00
9:53 am 09:53 Mostly Cloudy 50 10 32 0 50 50 E 8 13 30.53 1034 10 16 0.00 0.00
10:53 am 10:53 Cloudy 54 12.2 32 0 43 43 ENE 6 9 30.51 1033 10 16 0.00 0.00
11:53 am 11:53 Cloudy 57 13.9 35 1.7 44 44 ENE 7 11 30.47 1032 10 16 0.00 0.00
12:53 pm 12:53 Mostly Cloudy 60 15.6 39 3.9 46 46 VRB 7 11 30.42 1030 10 16 0.00 0.00
12:56 pm 12:56 Mostly Sunny 61 16 39 4 45 45 VRB 7 11 30.39 1029 10 16 0.00 0.00
1:53 pm 13:53 Mostly Sunny 63 17.2 40 4.4 43 43 VRB 5 7 30.38 1029 10 16 0.00 0.00
2:53 pm 14:53 Mostly Cloudy 64 17.8 41 5 43 43 Calm 30.35 1028 10 16 0.00 0.00
3:53 pm 15:53 Cloudy 64 17.8 41 5 43 43 E 5 7 30.33 1027 10 16 0.00 0.00
4:53 pm 16:53 Cloudy 63 17.2 41 5 45 45 Calm 30.33 1027 10 16 0.00 0.00
5:53 pm 17:53 Cloudy 61 16.1 42 5.6 50 50 Calm 30.32 1027 10 16 0.00 0.00
6:53 pm 18:53 Cloudy 57 13.9 45 7.2 64 64 Calm 30.33 1027 10 16 0.00 0.00
7:53 pm 19:53 Mostly Cloudy 54 12.2 45 7.2 72 72 Calm 30.33 1027 10 16 0.00 0.00
8:53 pm 20:53 Cloudy 51 10.6 44 6.7 77 77 Calm 30.33 1027 10 16 0.00 0.00
9:53 pm 21:53 Mostly Clear 49 9.4 44 6.7 83 83 Calm 30.32 1027 10 16 0.00 0.00
10:53 pm 22:53 Clear 47 8.3 43 6.1 86 86 Calm 30.31 1026 10 16 0.00 0.00
11:53 pm 23:53 Clear 46 7.8 42 5.6 86 86 Calm 30.31 1026 10 16 0.00 0.00

Powered by AerisWeather